Weather History for KHFF - November, 2012

Change the Weather History Date:

Tuesday, November 20, 2012

  Actual Average Record
Temperature  
Mean Temperature 50 °F -  
Max Temperature 58 °F 63 °F 74 °F (2011)
Min Temperature 41 °F 39 °F 24 °F (2008)
Degree Days  
Heating Degree Days 15    
Moisture  
Dew Point 44 °F    
Average Humidity 86    
Maximum Humidity 95    
Minimum Humidity 62    
Precipitation  
Precipitation 0.00 in - - ()
Sea Level Pressure  
Sea Level Pressure 30.15 in    
Wind  
Wind Speed 6 mph (North)    
Max Wind Speed 9 mph    
Max Gust Speed -    
Visibility 10 miles    
Events      
Averages and records for this station are not official NWS values.
T = Trace of Precipitation, MM = Missing Value Source: NWS Daily Summary

Daily Weather History Graph

Daily Weather History Graph

Search for Another Location

Airport or City:

Trip Planner

Search our weather history database for the weather conditions in past years. The results will help you decide how hot, cold, wet, or windy it might be!

Date:

Astronomy

Nov. 20, 2012 Rise Set
Actual Time 6:57 AM EST 5:09 PM EST
Civil Twilight 6:30 AM EST 5:36 PM EST
Nautical Twilight 5:59 AM EST 6:07 PM EST
Astronomical Twilight 5:29 AM EST 6:37 PM EST
Moon 12:39 PM EST (11/20) No Moon Set
Length of Visible Light 11h 05m
Length of Day
10h 11m
Waxing Crescent, 51% of the Moon is Illuminated
Nov 20
Waxing Crescent
Nov 28
Full
Dec 6
Last Quarter
Dec 13
New
Dec 20
First Quarter

Hourly Weather History & Observations

Time (EST) Temp. Windchill Dew Point Humidity Pressure Visibility Wind Dir Wind Speed Gust Speed Precip Events Conditions
12:55 AM 45.0 °F 41.2 °F 42.3 °F 90% 30.17 in 10.0 mi NW 6.9 mph - N/A   Clear
1:55 AM 45.3 °F 41.6 °F 42.3 °F 89% 30.15 in 10.0 mi Variable 6.9 mph - N/A   Partly Cloudy
2:55 AM 44.6 °F 40.2 °F 41.7 °F 90% 30.16 in 10.0 mi North 8.1 mph - N/A   Clear
3:55 AM 43.5 °F 40.1 °F 41.0 °F 91% 30.17 in 10.0 mi North 5.8 mph - N/A   Clear
4:55 AM 42.8 °F 39.3 °F 40.8 °F 93% 30.16 in 10.0 mi NNE 5.8 mph - N/A   Clear
5:19 AM 44.6 °F 40.7 °F 41.0 °F 87% 30.16 in 10.0 mi North 6.9 mph - N/A   Mostly Cloudy
5:24 AM 44.6 °F 41.4 °F 41.0 °F 87% 30.17 in 10.0 mi NNW 5.8 mph - N/A   Mostly Cloudy
5:49 AM 44.6 °F 40.7 °F 42.8 °F 93% 30.17 in 10.0 mi North 6.9 mph - N/A   Overcast
5:55 AM 44.2 °F 40.3 °F 42.8 °F 95% 30.17 in 10.0 mi North 6.9 mph - N/A   Overcast
6:24 AM 44.6 °F 40.2 °F 42.8 °F 93% 30.17 in 10.0 mi North 8.1 mph - N/A   Overcast
6:29 AM 44.6 °F 40.2 °F 42.8 °F 93% 30.17 in 10.0 mi North 8.1 mph - N/A   Overcast
6:55 AM 44.2 °F 41.0 °F 42.3 °F 93% 30.18 in 10.0 mi North 5.8 mph - N/A   Mostly Cloudy
7:10 AM 44.6 °F 42.2 °F 42.8 °F 93% 30.18 in 10.0 mi NNW 4.6 mph - N/A   Mostly Cloudy
7:19 AM 44.6 °F 42.2 °F 42.8 °F 93% 30.18 in 10.0 mi North 4.6 mph - N/A   Scattered Clouds
7:24 AM 44.6 °F 42.2 °F 42.8 °F 93% 30.18 in 10.0 mi North 4.6 mph - N/A   Mostly Cloudy
7:55 AM 45.0 °F 41.8 °F 43.0 °F 93% 30.19 in 10.0 mi NNW 5.8 mph - N/A   Mostly Cloudy
8:19 AM 46.4 °F 42.9 °F 44.6 °F 93% 30.19 in 10.0 mi North 6.9 mph - N/A   Mostly Cloudy
8:34 AM 46.4 °F 43.5 °F 44.6 °F 93% 30.19 in 10.0 mi Variable 5.8 mph - N/A   Mostly Cloudy
8:44 AM 48.2 °F - 44.6 °F 87% 30.18 in 10.0 mi Variable 5.8 mph - N/A   Scattered Clouds
8:55 AM 47.8 °F - 44.6 °F 89% 30.18 in 10.0 mi North 6.9 mph - N/A   Scattered Clouds
9:55 AM 50.5 °F - 45.0 °F 81% 30.18 in 10.0 mi NNW 5.8 mph - N/A   Clear
10:55 AM 53.8 °F - 46.0 °F 75% 30.18 in 10.0 mi North 3.5 mph - N/A   Clear
11:55 AM 55.9 °F - 46.6 °F 71% 30.14 in 10.0 mi NE 6.9 mph - N/A   Clear
12:55 PM 58.1 °F - 45.7 °F 63% 30.11 in 10.0 mi North 9.2 mph - N/A   Clear
1:55 PM 58.3 °F - 45.7 °F 63% 30.09 in 10.0 mi NNE 6.9 mph - N/A   Partly Cloudy
2:55 PM 58.8 °F - 45.7 °F 62% 30.08 in 10.0 mi NNE 4.6 mph - N/A   Partly Cloudy
3:55 PM 58.5 °F - 45.9 °F 63% 30.08 in 10.0 mi East 2.3 mph - N/A   Scattered Clouds
4:55 PM 55.8 °F - 46.2 °F 70% 30.08 in 10.0 mi North 4.6 mph - N/A   Scattered Clouds
5:55 PM 51.3 °F - 46.0 °F 82% 30.09 in 10.0 mi North 1.2 mph - N/A   Mostly Cloudy
6:55 PM 48.0 °F - 44.8 °F 89% 30.11 in 10.0 mi NNE 1.2 mph - N/A   Mostly Cloudy
7:55 PM 45.0 °F - 43.7 °F 95% 30.11 in 10.0 mi Calm Calm - N/A   Scattered Clouds
8:55 PM 41.2 °F - 39.9 °F 95% 30.12 in 10.0 mi NW 1.2 mph - N/A   Partly Cloudy